User: anonymous   Login
Location: Columbia
(38.9520°N, 92.3340°W)
Time: 12:27:07
(UTC-05:00)
Language:

FENGYUN 3A - Orbit

View from above orbital plane
View from above orbital plane
View from above satellite
View from above satellite

Ground track
Ground track

The orbit data is extracted from the following two-line orbital elements,

1 32958U 08026A   16122.18588974  .00000003  00000-0  21153-4 0  9994
2 32958  98.4571 164.3408 0010496  41.6384 318.5587 14.19615153410889
Epoch (UTC): 01 May 2016 04:27:40
Eccentricity: 0.0010496
inclination: 98.4571°
perigee height: 819 km
apogee height: 834 km
right ascension of ascending node: 164.3408°
argument of perigee: 41.6384°
revolutions per day: 14.19615153
mean anomaly at epoch: 318.5587°
orbit number at epoch: 41088

The dashed part of the orbit path shows where the satellite is in the earth's shadow,  

DLR